Address 0x7baa2c44edf7bf7ecfdfa039395cd0b6bb1d504d

 
 
Txn Hash Method
Block
From
To
Value [Txn Fee]
0x63a48be488ae7c3449734b697fbea422b3715d3d85f7eba94f826248e29436dd0x1de9c881110143752021-09-18 6:19:101 hr 11 mins ago0x7baa2c44edf7bf7ecfdfa039395cd0b6bb1d504dOUT 0xdb8d4367e358c0694ad731b551027de0845a3c530 BNB0.00020337
0x8b5d90a41c1379c94e84491f9308f215c76d153828ccc80eb69d3faf99f872da0x1de9c881110124562021-09-18 4:42:132 hrs 48 mins ago0x7baa2c44edf7bf7ecfdfa039395cd0b6bb1d504dOUT 0xdb8d4367e358c0694ad731b551027de0845a3c530 BNB0.0003312825
0xac9894a33ac490381fd7ad13314187bd8c8a82a62a845cd5b1e3f16d42e72c6eTransfer110113052021-09-18 3:44:393 hrs 45 mins ago0x7baa2c44edf7bf7ecfdfa039395cd0b6bb1d504dSELF0x7baa2c44edf7bf7ecfdfa039395cd0b6bb1d504d0 BNB0.00016317
0x0cfc92c7f933f1e4cc77e2de384d4d7569051c2325837cd7b92bb7810b54c3190x1de9c881110091782021-09-18 1:58:125 hrs 32 mins ago0x7baa2c44edf7bf7ecfdfa039395cd0b6bb1d504dOUT 0x0d622112842d644d05db7ba12dfbcf6a16401d710 BNB0.000255639241
0x574b4aa282df35cbd2fe2578b964a6776bd4f69246e2dca845f5e7ab03de84b80x1de9c881110078852021-09-18 0:53:286 hrs 37 mins ago0x7baa2c44edf7bf7ecfdfa039395cd0b6bb1d504dOUT 0xc7064f072cdeb795dc591cf2d485385391af40d20 BNB0.000203545
0x9404a4f5ceb8a2dad3ed21e15e1cef71e8b799997499c76b7ff87c53f93b97110x1de9c881110047452021-09-17 22:16:289 hrs 14 mins ago0x7baa2c44edf7bf7ecfdfa039395cd0b6bb1d504dOUT 0xdb8d4367e358c0694ad731b551027de0845a3c530 BNB0.000184255
0x49b193d5abbf968f0c831af429dc510282c7125b5f9b7f70780bed88051253b70x1de9c881109954032021-09-17 14:28:5017 hrs 1 min ago0x7baa2c44edf7bf7ecfdfa039395cd0b6bb1d504dOUT 0xdb8d4367e358c0694ad731b551027de0845a3c530 BNB0.000221015
0x952663332164956689212e55288f713ef6e27ca71bf6c8fc2730f89972d766e8Transfer109953042021-09-17 14:23:5317 hrs 6 mins ago0x7baa2c44edf7bf7ecfdfa039395cd0b6bb1d504dSELF0x7baa2c44edf7bf7ecfdfa039395cd0b6bb1d504d0 BNB0.00011655
0x70aae9854c0d796f0ecabaf4f149789935532ffe23b2c4c81055022fb5586ddf0x1de9c881109951912021-09-17 14:18:1417 hrs 12 mins ago0x7baa2c44edf7bf7ecfdfa039395cd0b6bb1d504dOUT 0xdb8d4367e358c0694ad731b551027de0845a3c530 BNB0.000184425
0x11e80942de69fa2f40b408d82d8d264f242f575c38105d2547b07fe8bfb35cdd0x1de9c881109907512021-09-17 10:35:5920 hrs 54 mins ago0x7baa2c44edf7bf7ecfdfa039395cd0b6bb1d504dOUT 0xdb8d4367e358c0694ad731b551027de0845a3c530 BNB0.000184135
0xd206a0039e6ae8f76e4d60f82daaebc568fed66e03bf56fc6fc752f132874c960x1de9c881109824252021-09-17 3:39:061 day 3 hrs ago0x7baa2c44edf7bf7ecfdfa039395cd0b6bb1d504dOUT 0xdb8d4367e358c0694ad731b551027de0845a3c530 BNB0.00081418
0x98d73b38ad56d64adb267526c8dd9c5ef863e7017c6faeb0fe3340256d7f0df8Transfer109758572021-09-16 22:10:381 day 9 hrs ago0x7baa2c44edf7bf7ecfdfa039395cd0b6bb1d504dSELF0x7baa2c44edf7bf7ecfdfa039395cd0b6bb1d504d0 BNB0.00011655
0x46020b49ae6e9310e2b50e445dc596e496e5cb068a57cb22d491ec10153184250x1de9c881109728542021-09-16 19:40:291 day 11 hrs ago0x7baa2c44edf7bf7ecfdfa039395cd0b6bb1d504dOUT 0x0d622112842d644d05db7ba12dfbcf6a16401d710 BNB0.000184195
0xfe99d611683d0e444550f8b9d2ca17e22570d2ed9d957545b31841016897ba050x1de9c881109721132021-09-16 19:03:261 day 12 hrs ago0x7baa2c44edf7bf7ecfdfa039395cd0b6bb1d504dOUT 0xdb8d4367e358c0694ad731b551027de0845a3c530 BNB0.000243162
0x576cbf374d0588bc1df804b08d2f0a6440c9fbed17e00f0df5b7064d8c73b2dd0x1de9c881109700662021-09-16 17:20:591 day 14 hrs ago0x7baa2c44edf7bf7ecfdfa039395cd0b6bb1d504dOUT 0xc7064f072cdeb795dc591cf2d485385391af40d20 BNB0.000230145
0x2796eec817d14add949fabf192b72071d1ac77bff9582ba50aac4fe0a467402c0x1de9c881109676262021-09-16 15:18:181 day 16 hrs ago0x7baa2c44edf7bf7ecfdfa039395cd0b6bb1d504dOUT 0xdb8d4367e358c0694ad731b551027de0845a3c530 BNB0.000243786
0x3305f006dd852a8b31d5c1b1b58e08ae2cfc7781de09fec90bed0be58b1e1aee0x1de9c881109647002021-09-16 12:51:371 day 18 hrs ago0x7baa2c44edf7bf7ecfdfa039395cd0b6bb1d504dOUT 0xdb8d4367e358c0694ad731b551027de0845a3c530 BNB0.0002070345
0x9965c922d4d89b01e64adb8b6c5b65f35b0322a437297c9b8f0332b9d7e6efb40x1de9c881109619302021-09-16 10:32:031 day 20 hrs ago0x7baa2c44edf7bf7ecfdfa039395cd0b6bb1d504dOUT 0xd2ba87af21483715b38d298dbcb5f114e9701c190 BNB0.0004404132
0x23ce4fa7bed227ba82f7f3e29055ffecadec850f5cdcc9c863091e452b3d3b5f0x1de9c881109461782021-09-15 21:23:292 days 10 hrs ago0x7baa2c44edf7bf7ecfdfa039395cd0b6bb1d504dOUT 0xdb8d4367e358c0694ad731b551027de0845a3c530 BNB0.000203375
0x9e8b2dab03234f1f773c91a97d215ef8c0fe6a5662b0c339dbea4b172a95c1f2Transfer109415332021-09-15 17:31:142 days 13 hrs ago0x7baa2c44edf7bf7ecfdfa039395cd0b6bb1d504dSELF0x7baa2c44edf7bf7ecfdfa039395cd0b6bb1d504d0 BNB0.00011655
0xf6d877d43409c4aafdae0dbd11e7d002f1ad075962ddcf0c804319e619ccb4300x1de9c881109394112021-09-15 15:45:072 days 15 hrs ago0x7baa2c44edf7bf7ecfdfa039395cd0b6bb1d504dOUT 0xdb8d4367e358c0694ad731b551027de0845a3c530 BNB0.000212425
0xd68bc8c7f7ca7a5a1e1a1b18cc92f1ab3776ddb0447442cc34bdfad95c09a18b0x1de9c881109351952021-09-15 12:14:192 days 19 hrs ago0x7baa2c44edf7bf7ecfdfa039395cd0b6bb1d504dOUT 0x0d622112842d644d05db7ba12dfbcf6a16401d710 BNB0.00018437
0x0fe5c7a71508546e5376385cfa3fa55f9be01364efd0e1602cbbd702e990ab5eTransfer109319802021-09-15 9:32:162 days 21 hrs ago0x7baa2c44edf7bf7ecfdfa039395cd0b6bb1d504dSELF0x7baa2c44edf7bf7ecfdfa039395cd0b6bb1d504d0 BNB0.000121212
0xbb0b027bee9211d345376b98c4ff70167c39b1a7411410003175e831afb691bb0x1de9c881109275262021-09-15 5:44:293 days 1 hr ago0x7baa2c44edf7bf7ecfdfa039395cd0b6bb1d504dOUT 0xdb8d4367e358c0694ad731b551027de0845a3c530 BNB0.000212485
0x381538251beae345f4762d6db890a585b8bdbdb26034d6981005b031cabc6a370x1de9c881109224072021-09-15 1:28:323 days 6 hrs ago0x7baa2c44edf7bf7ecfdfa039395cd0b6bb1d504dOUT 0xdb8d4367e358c0694ad731b551027de0845a3c530 BNB0.000362654712
[ Download CSV Export 
Parent Txn Hash Block From To Value
Loading

Contract Name:
0 BNB

Compiler Version
0

Optimization Enabled:
0 BNB

Other Settings:
-NA-
Block Transaction Gas Used Reward
Age Block Fee Address BC Fee Address Voting Power Jailed Incoming
Block Uncle Number Difficulty Gas Used Reward
Loading
Loading
Make sure to use the "Vote Down" button for any spammy posts, and the "Vote Up" for interesting conversations.